GJE24 CYHZ-KORD

Flight info

Callsign GJE24
Flight time N/A
Altitude 35000
Route SENVI DCT VIGMA DCT ALLEX Q822 FNT WYNDE3
Aircraft A346/H-SDE2E3FGHIJ3J4J5M1RWXY/LB1D1

Departure

Time 2026-05-05 00:50
Airport Halifax / Stanfield International Airport (CYHZ)

Arrival

Time N/A
Airport Chicago O'Hare International Airport (KORD)
Time Latitude Longitude Altitude Speed Heading
2026-05-05 00:23 44.88924 -63.51547 465 ft 0 kts 245°
2026-05-05 00:35 44.88926 -63.51539 464 ft 2 kts 243°
2026-05-05 00:35 44.88936 -63.51517 462 ft 3 kts 231°
2026-05-05 00:36 44.88949 -63.51495 461 ft 3 kts 232°
2026-05-05 00:36 44.88955 -63.51483 462 ft 2 kts 233°
2026-05-05 00:36 44.88963 -63.51471 461 ft 3 kts 205°
2026-05-05 00:36 44.88968 -63.51469 460 ft 3 kts 168°
2026-05-05 00:37 44.88982 -63.51477 459 ft 3 kts 144°
2026-05-05 00:37 44.88996 -63.51495 460 ft 3 kts 131°
2026-05-05 00:37 44.89005 -63.51510 459 ft 1 kts 125°
2026-05-05 00:37 44.89006 -63.51511 459 ft 0 kts 125°
2026-05-05 00:43 44.89000 -63.51501 465 ft 4 kts 125°
2026-05-05 00:44 44.88973 -63.51445 465 ft 9 kts 125°
2026-05-05 00:44 44.88926 -63.51356 465 ft 12 kts 134°
2026-05-05 00:44 44.88844 -63.51303 465 ft 14 kts 167°
2026-05-05 00:44 44.88759 -63.51280 465 ft 9 kts 170°
2026-05-05 00:45 44.88700 -63.51243 465 ft 10 kts 118°
2026-05-05 00:45 44.88700 -63.51130 465 ft 13 kts 81°
2026-05-05 00:45 44.88716 -63.50997 465 ft 15 kts 80°
2026-05-05 00:45 44.88767 -63.50884 465 ft 11 kts 38°
2026-05-05 00:46 44.88834 -63.50815 463 ft 13 kts 35°
2026-05-05 00:46 44.88916 -63.50733 465 ft 15 kts 35°
2026-05-05 00:46 44.88978 -63.50672 465 ft 11 kts 40°
2026-05-05 00:46 44.88987 -63.50568 464 ft 13 kts 113°
2026-05-05 00:47 44.88978 -63.50542 464 ft 0 kts 120°
2026-05-05 00:48 44.88973 -63.50532 464 ft 4 kts 120°
2026-05-05 00:48 44.88949 -63.50479 464 ft 8 kts 130°
2026-05-05 00:48 44.88898 -63.50441 464 ft 9 kts 174°
2026-05-05 00:49 44.88848 -63.50475 466 ft 0 kts 217°
2026-05-05 00:49 44.88686 -63.50638 467 ft 67 kts 215°
2026-05-05 00:50 44.88088 -63.51227 465 ft 140 kts 215°
2026-05-05 00:50 44.87123 -63.52135 656 ft 183 kts 215°
2026-05-05 00:50 44.86043 -63.53131 1513 ft 186 kts 218°
2026-05-05 00:50 44.85010 -63.54204 2555 ft 184 kts 231°
2026-05-05 00:51 44.84175 -63.55624 3296 ft 197 kts 241°
2026-05-05 00:51 44.83389 -63.57349 3665 ft 222 kts 244°
2026-05-05 00:51 44.82575 -63.59308 4175 ft 238 kts 245°
2026-05-05 00:51 44.81770 -63.61382 4920 ft 244 kts 246°
2026-05-05 00:52 44.80988 -63.63526 5722 ft 240 kts 247°
2026-05-05 00:52 44.80286 -63.65545 6560 ft 219 kts 249°
2026-05-05 00:52 44.79655 -63.67433 7206 ft 209 kts 249°
2026-05-05 00:52 44.79015 -63.69304 7817 ft 215 kts 248°
2026-05-05 00:53 44.78315 -63.71216 8451 ft 225 kts 246°
2026-05-05 00:53 44.77513 -63.73192 8989 ft 237 kts 245°
2026-05-05 00:53 44.76678 -63.75219 9734 ft 240 kts 245°
2026-05-05 00:53 44.75840 -63.77268 10454 ft 242 kts 245°
2026-05-05 00:54 44.75000 -63.79335 11169 ft 244 kts 246°
2026-05-05 00:54 44.74156 -63.81419 11896 ft 246 kts 246°
2026-05-05 00:54 44.73305 -63.83526 12617 ft 248 kts 246°
2026-05-05 00:54 44.72439 -63.85675 13168 ft 258 kts 246°
2026-05-05 00:55 44.71527 -63.87945 13443 ft 274 kts 246°
2026-05-05 00:55 44.70559 -63.90342 13800 ft 286 kts 246°
2026-05-05 00:55 44.69569 -63.92792 14391 ft 289 kts 246°
2026-05-05 00:55 44.68587 -63.95217 15045 ft 290 kts 246°
2026-05-05 00:56 44.67585 -63.97697 15656 ft 293 kts 246°
2026-05-05 00:56 44.66628 -64.00223 16234 ft 294 kts 250°
2026-05-05 00:56 44.65801 -64.02857 16857 ft 295 kts 251°
2026-05-05 00:56 44.64990 -64.05527 17488 ft 297 kts 251°
2026-05-05 00:57 44.64165 -64.08245 18090 ft 300 kts 251°
2026-05-05 00:57 44.63341 -64.10957 18617 ft 303 kts 252°
2026-05-05 00:57 44.62509 -64.13686 19146 ft 305 kts 252°
2026-05-05 00:57 44.61956 -64.15505 19483 ft 306 kts 252°
2026-05-05 00:58 44.61112 -64.18274 20011 ft 309 kts 252°
2026-05-05 00:58 44.60265 -64.21054 20533 ft 311 kts 252°
2026-05-05 00:58 44.59410 -64.23855 21026 ft 313 kts 252°
2026-05-05 00:58 44.58548 -64.26693 21455 ft 318 kts 252°
2026-05-05 00:59 44.57383 -64.30510 22059 ft 323 kts 252°
2026-05-05 00:59 44.56492 -64.33414 22569 ft 325 kts 253°
2026-05-05 00:59 44.55886 -64.35391 22832 ft 330 kts 253°
2026-05-05 00:59 44.54964 -64.38413 23049 ft 342 kts 253°
2026-05-05 01:00 44.53693 -64.42568 23358 ft 357 kts 253°
2026-05-05 01:00 44.53021 -64.44763 23501 ft 365 kts 253°
2026-05-05 01:00 44.52005 -64.48074 23694 ft 376 kts 252°
2026-05-05 01:00 44.50953 -64.51492 23866 ft 386 kts 252°
2026-05-05 01:01 44.49873 -64.54993 24064 ft 396 kts 252°
2026-05-05 01:01 44.48765 -64.58578 24312 ft 404 kts 252°
2026-05-05 01:01 44.47642 -64.62201 24666 ft 407 kts 252°
2026-05-05 01:01 44.46506 -64.65858 25052 ft 411 kts 252°
2026-05-05 01:02 44.45372 -64.69507 25383 ft 416 kts 252°
2026-05-05 01:02 44.44211 -64.73239 25790 ft 419 kts 253°
2026-05-05 01:02 44.43043 -64.76987 26217 ft 422 kts 253°
2026-05-05 01:02 44.41864 -64.80769 26614 ft 425 kts 253°
2026-05-05 01:03 44.40673 -64.84582 26992 ft 428 kts 253°
2026-05-05 01:03 44.39475 -64.88419 27390 ft 432 kts 253°
2026-05-05 01:03 44.38263 -64.92283 27775 ft 435 kts 254°
2026-05-05 01:03 44.37042 -64.96171 28144 ft 438 kts 254°
2026-05-05 01:04 44.35816 -65.00084 28452 ft 441 kts 254°
2026-05-05 01:04 44.33325 -65.08032 29041 ft 450 kts 254°
2026-05-05 01:04 44.32058 -65.12051 29348 ft 452 kts 254°
2026-05-05 01:05 44.30785 -65.16081 29639 ft 455 kts 254°
2026-05-05 01:05 44.29501 -65.20142 29905 ft 457 kts 254°
2026-05-05 01:05 44.28213 -65.24212 30173 ft 458 kts 254°
2026-05-05 01:05 44.26927 -65.28277 30473 ft 458 kts 253°
2026-05-05 01:06 44.25638 -65.32342 30798 ft 457 kts 253°
2026-05-05 01:06 44.24350 -65.36397 31119 ft 456 kts 253°
2026-05-05 01:06 44.23059 -65.40454 31401 ft 457 kts 252°
2026-05-05 01:06 44.21766 -65.44506 31695 ft 457 kts 252°
2026-05-05 01:07 44.20489 -65.48500 32004 ft 457 kts 251°
2026-05-05 01:07 44.19174 -65.52600 32318 ft 456 kts 251°
2026-05-05 01:07 44.17879 -65.56638 32639 ft 456 kts 251°
2026-05-05 01:07 44.16585 -65.60666 32956 ft 455 kts 251°
2026-05-05 01:08 44.15309 -65.64633 33276 ft 454 kts 250°
2026-05-05 01:08 44.14019 -65.68636 33712 ft 451 kts 250°
2026-05-05 01:08 44.12732 -65.72624 33853 ft 449 kts 250°
2026-05-05 01:08 44.11447 -65.76590 33854 ft 448 kts 250°
2026-05-05 01:09 44.08882 -65.84498 33869 ft 448 kts 250°
2026-05-05 01:09 44.06313 -65.92403 33873 ft 448 kts 250°
2026-05-05 01:10 44.03739 -66.00302 33873 ft 448 kts 250°
2026-05-05 01:10 44.01155 -66.08197 33867 ft 448 kts 251°
2026-05-05 01:11 43.98565 -66.16103 33874 ft 450 kts 251°
2026-05-05 01:11 43.95968 -66.24030 33886 ft 450 kts 251°
2026-05-05 01:12 43.93361 -66.31950 33888 ft 451 kts 251°
2026-05-05 01:12 43.90746 -66.39864 33885 ft 451 kts 251°
2026-05-05 01:13 43.88138 -66.47726 33856 ft 451 kts 251°
2026-05-05 01:13 43.85480 -66.55707 33880 ft 453 kts 251°
2026-05-05 01:14 43.82849 -66.63594 33872 ft 454 kts 252°
2026-05-05 01:14 43.80185 -66.71551 33886 ft 455 kts 252°
2026-05-05 01:15 43.77519 -66.79503 33891 ft 455 kts 252°
2026-05-05 01:15 43.74838 -66.87460 33892 ft 456 kts 252°
2026-05-05 01:16 43.72183 -66.95454 33876 ft 454 kts 255°
2026-05-05 01:16 43.70806 -67.03819 33900 ft 442 kts 271°
2026-05-05 01:17 43.70826 -67.12250 33888 ft 436 kts 276°
2026-05-05 01:17 43.70986 -67.20634 33895 ft 436 kts 276°
2026-05-05 01:18 43.71139 -67.29030 33897 ft 436 kts 276°
2026-05-05 01:18 43.71283 -67.37413 33896 ft 436 kts 276°
2026-05-05 01:19 43.71419 -67.45810 33886 ft 436 kts 276°
2026-05-05 01:19 43.71546 -67.54198 33881 ft 436 kts 276°
2026-05-05 01:20 43.71668 -67.62598 33877 ft 437 kts 277°
2026-05-05 01:20 43.71788 -67.71025 33884 ft 438 kts 276°
2026-05-05 01:21 43.71900 -67.79453 33889 ft 438 kts 276°
2026-05-05 01:21 43.72006 -67.87890 33879 ft 438 kts 276°
2026-05-05 01:22 43.72103 -67.96319 33877 ft 438 kts 277°
2026-05-05 01:22 43.72196 -68.04781 33876 ft 438 kts 276°
2026-05-05 01:23 43.72283 -68.13223 33879 ft 439 kts 276°
2026-05-05 01:23 43.72363 -68.21668 33876 ft 439 kts 276°
2026-05-05 01:24 43.72437 -68.30122 33862 ft 439 kts 276°
2026-05-05 01:24 43.72505 -68.38582 33872 ft 440 kts 276°
2026-05-05 01:25 43.72567 -68.47054 33867 ft 440 kts 276°
2026-05-05 01:25 43.72622 -68.55466 33868 ft 440 kts 276°
2026-05-05 01:26 43.72670 -68.63948 33863 ft 442 kts 276°
2026-05-05 01:26 43.72715 -68.72468 33864 ft 443 kts 276°
2026-05-05 01:27 43.72751 -68.81021 33863 ft 444 kts 276°
2026-05-05 01:27 43.72781 -68.89571 33864 ft 444 kts 276°
2026-05-05 01:28 43.72805 -68.98122 33863 ft 444 kts 276°
2026-05-05 01:28 43.72823 -69.06701 33863 ft 444 kts 276°
2026-05-05 01:29 43.72836 -69.15263 33842 ft 445 kts 276°
2026-05-05 01:29 43.72840 -69.23832 33848 ft 445 kts 276°
2026-05-05 01:30 43.72837 -69.32405 33849 ft 445 kts 276°
2026-05-05 01:30 43.72828 -69.40978 33836 ft 445 kts 276°
2026-05-05 01:31 43.72814 -69.49545 33834 ft 445 kts 275°
2026-05-05 01:31 43.72578 -69.58121 33825 ft 450 kts 268°
2026-05-05 01:32 43.70911 -69.66593 33831 ft 463 kts 255°
2026-05-05 01:32 43.68491 -69.74871 33834 ft 465 kts 254°
2026-05-05 01:33 43.66029 -69.83150 33834 ft 465 kts 254°
2026-05-05 01:33 43.63571 -69.91424 33835 ft 465 kts 254°
2026-05-05 01:34 43.61117 -69.99674 33814 ft 463 kts 254°
2026-05-05 01:34 43.58668 -70.07896 33810 ft 463 kts 254°
2026-05-05 01:35 43.56209 -70.16120 33802 ft 463 kts 254°
2026-05-05 01:35 43.53745 -70.24335 33803 ft 463 kts 254°
2026-05-05 01:36 43.51273 -70.32551 33803 ft 463 kts 254°
2026-05-05 01:36 43.48798 -70.40753 33811 ft 463 kts 254°
2026-05-05 01:37 43.46316 -70.48961 33810 ft 464 kts 253°
2026-05-05 01:37 43.43858 -70.57175 33828 ft 462 kts 255°
2026-05-05 01:38 43.41973 -70.65577 33834 ft 457 kts 262°
2026-05-05 01:38 43.40673 -70.74117 33829 ft 454 kts 264°
2026-05-05 01:39 43.39427 -70.82642 33833 ft 454 kts 264°
2026-05-05 01:39 43.38182 -70.91113 33818 ft 454 kts 264°
2026-05-05 01:40 43.36917 -70.99660 33813 ft 456 kts 264°
2026-05-05 01:40 43.35643 -71.08205 33817 ft 456 kts 264°
2026-05-05 01:41 43.34361 -71.16758 33815 ft 456 kts 263°
2026-05-05 01:41 43.33072 -71.25312 33816 ft 457 kts 263°
2026-05-05 01:42 43.31777 -71.33864 33826 ft 456 kts 263°
2026-05-05 01:42 43.30476 -71.42408 33829 ft 457 kts 263°
2026-05-05 01:43 43.29168 -71.50953 33831 ft 456 kts 263°
2026-05-05 01:43 43.27858 -71.59483 33829 ft 456 kts 263°
2026-05-05 01:44 43.26536 -71.68024 33828 ft 456 kts 263°
2026-05-05 01:44 43.25209 -71.76549 33823 ft 456 kts 263°
2026-05-05 01:45 43.23877 -71.85069 33815 ft 456 kts 263°
2026-05-05 01:45 43.22753 -71.92230 33806 ft 456 kts 262°
2026-05-05 01:46 43.21421 -72.00686 33823 ft 456 kts 262°
2026-05-05 01:46 43.20070 -72.09192 33805 ft 456 kts 262°
2026-05-05 01:47 43.18713 -72.17711 33812 ft 457 kts 262°
2026-05-05 01:47 43.17346 -72.26236 33807 ft 458 kts 262°
2026-05-05 01:48 43.15974 -72.34756 33811 ft 457 kts 262°
2026-05-05 01:48 43.14595 -72.43269 33819 ft 457 kts 262°
2026-05-05 01:49 43.13211 -72.51779 33818 ft 457 kts 262°
2026-05-05 01:49 43.11820 -72.60283 33820 ft 457 kts 262°
2026-05-05 01:50 43.10428 -72.68765 33811 ft 456 kts 261°
2026-05-05 01:50 43.09029 -72.77239 33805 ft 456 kts 261°
2026-05-05 01:51 43.07622 -72.85718 33811 ft 457 kts 261°
2026-05-05 01:51 43.06207 -72.94197 33812 ft 457 kts 261°
2026-05-05 01:52 43.04786 -73.02684 33804 ft 456 kts 261°
2026-05-05 01:52 43.03361 -73.11143 33802 ft 456 kts 261°
2026-05-05 01:53 43.01931 -73.19597 33822 ft 456 kts 261°
2026-05-05 01:53 43.00493 -73.28061 33820 ft 457 kts 262°
2026-05-05 01:54 42.99630 -73.36596 33801 ft 450 kts 270°
2026-05-05 01:54 42.99673 -73.45139 33811 ft 449 kts 275°
2026-05-05 01:55 42.99885 -73.53668 33801 ft 448 kts 275°
2026-05-05 01:55 43.00092 -73.62190 33796 ft 448 kts 275°
2026-05-05 01:56 43.00292 -73.70708 33782 ft 447 kts 274°
2026-05-05 01:56 43.00481 -73.79202 33784 ft 446 kts 274°
2026-05-05 01:57 43.00662 -73.87694 33777 ft 446 kts 274°
2026-05-05 01:57 43.00838 -73.96182 33781 ft 446 kts 274°
2026-05-05 01:58 43.01008 -74.04634 33777 ft 446 kts 274°
2026-05-05 01:58 43.01171 -74.13182 33783 ft 446 kts 274°
2026-05-05 01:59 43.01326 -74.21677 33775 ft 446 kts 274°
2026-05-05 01:59 43.01607 -74.30095 33779 ft 445 kts 276°
2026-05-05 02:00 43.01994 -74.38551 33774 ft 445 kts 276°
2026-05-05 02:00 43.02374 -74.46999 33773 ft 445 kts 276°
2026-05-05 02:01 43.02745 -74.55446 33768 ft 445 kts 275°
2026-05-05 02:01 43.03111 -74.63897 33767 ft 445 kts 275°
2026-05-05 02:02 43.03470 -74.72351 33761 ft 445 kts 275°
2026-05-05 02:02 43.03822 -74.80811 33763 ft 445 kts 275°
2026-05-05 02:03 43.04168 -74.89258 33765 ft 445 kts 275°
2026-05-05 02:03 43.04508 -74.97723 33758 ft 445 kts 275°
2026-05-05 02:04 43.04843 -75.06207 33769 ft 445 kts 275°
2026-05-05 02:04 43.05171 -75.14682 33757 ft 446 kts 275°
2026-05-05 02:05 43.05493 -75.23180 33753 ft 447 kts 275°
2026-05-05 02:05 43.05801 -75.31689 33758 ft 447 kts 275°
2026-05-05 02:06 43.06045 -75.40201 33765 ft 447 kts 274°
2026-05-05 02:06 43.06277 -75.48712 33756 ft 448 kts 274°
2026-05-05 02:07 43.06505 -75.57241 33755 ft 448 kts 274°
2026-05-05 02:07 43.06729 -75.65760 33749 ft 448 kts 274°
2026-05-05 02:08 43.06946 -75.74279 33743 ft 448 kts 274°
2026-05-05 02:08 43.07158 -75.82800 33739 ft 447 kts 274°
2026-05-05 02:09 43.07363 -75.91305 33730 ft 446 kts 274°
2026-05-05 02:09 43.07559 -75.99745 33733 ft 446 kts 274°
2026-05-05 02:10 43.07753 -76.08286 33732 ft 446 kts 274°
2026-05-05 02:10 43.07938 -76.16727 33732 ft 445 kts 274°
2026-05-05 02:11 43.08117 -76.25183 33731 ft 444 kts 274°
2026-05-05 02:11 43.08288 -76.33648 33726 ft 444 kts 274°
2026-05-05 02:12 43.08535 -76.46327 33730 ft 444 kts 274°
2026-05-05 02:13 43.08693 -76.54786 33723 ft 443 kts 273°
2026-05-05 02:13 43.08841 -76.63209 33725 ft 442 kts 273°
2026-05-05 02:14 43.08981 -76.71634 33713 ft 442 kts 273°
2026-05-05 02:14 43.09104 -76.80065 33714 ft 442 kts 273°
2026-05-05 02:15 43.09221 -76.88490 33721 ft 442 kts 272°
2026-05-05 02:15 43.09332 -76.96892 33727 ft 440 kts 272°
2026-05-05 02:16 43.09433 -77.05264 33728 ft 440 kts 272°
2026-05-05 02:16 43.09530 -77.13667 33722 ft 442 kts 272°
2026-05-05 02:17 43.09621 -77.22087 33724 ft 442 kts 272°
2026-05-05 02:17 43.09709 -77.30493 33725 ft 441 kts 272°
2026-05-05 02:18 43.09787 -77.38913 33729 ft 441 kts 272°
2026-05-05 02:18 43.09858 -77.47313 33716 ft 441 kts 272°
2026-05-05 02:19 43.09924 -77.55726 33719 ft 441 kts 272°
2026-05-05 02:19 43.09988 -77.64070 33721 ft 440 kts 271°
2026-05-05 02:20 43.10041 -77.72434 33721 ft 439 kts 271°
2026-05-05 02:20 43.10087 -77.80802 33717 ft 439 kts 271°
2026-05-05 02:21 43.10129 -77.89162 33712 ft 439 kts 271°
2026-05-05 02:21 43.10165 -77.97529 33704 ft 439 kts 271°
2026-05-05 02:22 43.10195 -78.05889 33714 ft 439 kts 271°
2026-05-05 02:22 43.10218 -78.14256 33709 ft 439 kts 271°
2026-05-05 02:23 43.10235 -78.22634 33708 ft 439 kts 270°
2026-05-05 02:23 43.10246 -78.31003 33709 ft 439 kts 270°
2026-05-05 02:24 43.10252 -78.39373 33706 ft 439 kts 270°
2026-05-05 02:24 43.10251 -78.47745 33700 ft 439 kts 270°
2026-05-05 02:25 43.10244 -78.56108 33697 ft 439 kts 270°
2026-05-05 02:25 43.10231 -78.64477 33703 ft 439 kts 270°
2026-05-05 02:26 43.10213 -78.72848 33708 ft 438 kts 270°
2026-05-05 02:26 43.10187 -78.81184 33681 ft 437 kts 270°
2026-05-05 02:27 43.10156 -78.89531 33686 ft 437 kts 270°
2026-05-05 02:27 43.10117 -78.97803 33679 ft 437 kts 270°
2026-05-05 02:28 43.10069 -79.06185 33676 ft 440 kts 270°
2026-05-05 02:28 43.10000 -79.14579 33654 ft 440 kts 270°
2026-05-05 02:29 43.09922 -79.22971 33654 ft 440 kts 270°
2026-05-05 02:29 43.09839 -79.31360 33658 ft 440 kts 269°
2026-05-05 02:30 43.09749 -79.39756 33661 ft 440 kts 269°
2026-05-05 02:30 43.09655 -79.48143 33665 ft 440 kts 269°
2026-05-05 02:31 43.09553 -79.56527 33666 ft 440 kts 269°
2026-05-05 02:31 43.09445 -79.64919 33666 ft 440 kts 269°
2026-05-05 02:32 43.09332 -79.73297 33665 ft 440 kts 269°
2026-05-05 02:32 43.09213 -79.81678 33671 ft 439 kts 269°
2026-05-05 02:33 43.09110 -79.88628 33665 ft 438 kts 269°
2026-05-05 02:33 43.08979 -79.96959 33666 ft 438 kts 269°
2026-05-05 02:34 43.08842 -80.05286 33662 ft 438 kts 269°
2026-05-05 02:34 43.08699 -80.13635 33666 ft 438 kts 269°
2026-05-05 02:35 43.08554 -80.21963 33664 ft 437 kts 268°
2026-05-05 02:35 43.08399 -80.30278 33667 ft 436 kts 268°
2026-05-05 02:36 43.08238 -80.38595 33670 ft 436 kts 268°
2026-05-05 02:36 43.08072 -80.46907 33661 ft 436 kts 268°
2026-05-05 02:37 43.07900 -80.55210 33669 ft 436 kts 268°
2026-05-05 02:37 43.07725 -80.63452 33659 ft 435 kts 268°
2026-05-05 02:38 43.07541 -80.71745 33661 ft 435 kts 268°
2026-05-05 02:38 43.07350 -80.80041 33666 ft 436 kts 268°
2026-05-05 02:39 43.07154 -80.88341 33669 ft 436 kts 268°
2026-05-05 02:39 43.06955 -80.96630 33672 ft 436 kts 267°
2026-05-05 02:40 43.06745 -81.04931 33681 ft 437 kts 267°
2026-05-05 02:40 43.06529 -81.13255 33684 ft 437 kts 267°
2026-05-05 02:41 43.06309 -81.21570 33686 ft 437 kts 267°
2026-05-05 02:41 43.06082 -81.29888 33689 ft 437 kts 267°
2026-05-05 02:42 43.05849 -81.38194 33654 ft 436 kts 267°
2026-05-05 02:42 43.05609 -81.46493 33645 ft 436 kts 267°
2026-05-05 02:43 43.05364 -81.54782 33629 ft 436 kts 266°
2026-05-05 02:43 43.05113 -81.63087 33627 ft 436 kts 266°
2026-05-05 02:44 43.04857 -81.71376 33621 ft 435 kts 266°
2026-05-05 02:44 43.04594 -81.79650 33619 ft 435 kts 266°
2026-05-05 02:45 43.04324 -81.87923 33617 ft 435 kts 266°
2026-05-05 02:45 43.04050 -81.96191 33618 ft 435 kts 266°
2026-05-05 02:46 43.03772 -82.04397 33619 ft 435 kts 266°
2026-05-05 02:46 43.03486 -82.12667 33615 ft 435 kts 266°
2026-05-05 02:47 43.03194 -82.20940 33619 ft 435 kts 266°
2026-05-05 02:47 43.02895 -82.29213 33611 ft 435 kts 266°
2026-05-05 02:48 43.02590 -82.37475 33626 ft 435 kts 266°
2026-05-05 02:48 43.02282 -82.45734 33619 ft 434 kts 266°
2026-05-05 02:49 43.01966 -82.53981 33632 ft 434 kts 266°
2026-05-05 02:49 43.01644 -82.62238 33641 ft 434 kts 266°
2026-05-05 02:50 43.01316 -82.70481 33653 ft 434 kts 266°
2026-05-05 02:50 43.00983 -82.78724 33705 ft 434 kts 265°
2026-05-05 02:51 43.00646 -82.86963 33702 ft 433 kts 265°
2026-05-05 02:51 43.00299 -82.95197 33766 ft 434 kts 265°
2026-05-05 02:52 42.99948 -83.03438 33745 ft 434 kts 265°
2026-05-05 02:52 42.99590 -83.11697 33745 ft 434 kts 265°
2026-05-05 02:53 42.99228 -83.19952 33699 ft 435 kts 265°
2026-05-05 02:53 42.98858 -83.28209 33734 ft 435 kts 265°
2026-05-05 02:54 42.98482 -83.36464 33688 ft 435 kts 265°
2026-05-05 02:54 42.98100 -83.44723 33641 ft 435 kts 265°
2026-05-05 02:55 42.97713 -83.52979 33600 ft 435 kts 265°
2026-05-05 02:55 42.97319 -83.61249 33590 ft 437 kts 265°
2026-05-05 02:56 42.96916 -83.69537 33590 ft 437 kts 265°
2026-05-05 02:56 42.96362 -83.77797 33588 ft 436 kts 262°
2026-05-05 02:57 42.95585 -83.85969 33587 ft 436 kts 262°
2026-05-05 02:57 42.94792 -83.94193 33586 ft 437 kts 262°
2026-05-05 02:58 42.93993 -84.02419 33574 ft 437 kts 262°
2026-05-05 02:58 42.93186 -84.10666 33573 ft 437 kts 262°
2026-05-05 02:59 42.92374 -84.18904 33569 ft 437 kts 261°
2026-05-05 02:59 42.91557 -84.27135 33571 ft 437 kts 261°
2026-05-05 03:00 42.90733 -84.35355 33573 ft 436 kts 261°
2026-05-05 03:00 42.89906 -84.43560 33565 ft 435 kts 261°
2026-05-05 03:01 42.89074 -84.51751 33583 ft 436 kts 261°
2026-05-05 03:01 42.88234 -84.59971 33589 ft 438 kts 261°
2026-05-05 03:02 42.87386 -84.68202 33597 ft 438 kts 261°
2026-05-05 03:02 42.86531 -84.76446 33591 ft 439 kts 261°
2026-05-05 03:03 42.85669 -84.84711 33583 ft 439 kts 261°
2026-05-05 03:03 42.84800 -84.92970 33575 ft 439 kts 261°
2026-05-05 03:04 42.83922 -85.01250 33565 ft 439 kts 261°
2026-05-05 03:04 42.83040 -85.09509 33560 ft 440 kts 261°
2026-05-05 03:05 42.82150 -85.17783 33557 ft 441 kts 261°
2026-05-05 03:05 42.81254 -85.26056 33553 ft 441 kts 261°
2026-05-05 03:06 42.80351 -85.34333 33567 ft 441 kts 261°
2026-05-05 03:06 42.79442 -85.42601 33572 ft 441 kts 261°
2026-05-05 03:07 42.78424 -85.50829 33574 ft 439 kts 258°
2026-05-05 03:07 42.77004 -85.58928 33571 ft 439 kts 256°
2026-05-05 03:08 42.75554 -85.67025 33567 ft 440 kts 256°
2026-05-05 03:08 42.74094 -85.75125 33569 ft 440 kts 256°
2026-05-05 03:09 42.72641 -85.83153 33572 ft 440 kts 256°
2026-05-05 03:09 42.71171 -85.91236 33574 ft 440 kts 256°
2026-05-05 03:10 42.69694 -85.99316 33576 ft 440 kts 256°
2026-05-05 03:10 42.68215 -86.07380 33578 ft 440 kts 256°
2026-05-05 03:11 42.66727 -86.15456 33575 ft 439 kts 256°
2026-05-05 03:11 42.65234 -86.23507 33580 ft 437 kts 256°
2026-05-05 03:12 42.63746 -86.31524 33578 ft 437 kts 256°
2026-05-05 03:12 42.62254 -86.39535 33586 ft 437 kts 256°
2026-05-05 03:13 42.60754 -86.47545 33587 ft 437 kts 256°
2026-05-05 03:13 42.59249 -86.55551 33591 ft 437 kts 256°
2026-05-05 03:14 42.57739 -86.63539 33589 ft 435 kts 256°
2026-05-05 03:14 42.56188 -86.71480 33589 ft 436 kts 254°
2026-05-05 03:15 42.54175 -86.79295 33602 ft 439 kts 251°
2026-05-05 03:15 42.52077 -86.87069 33626 ft 439 kts 251°
2026-05-05 03:16 42.49967 -86.94846 33632 ft 439 kts 251°
2026-05-05 03:16 42.47847 -87.02632 33635 ft 439 kts 251°
2026-05-05 03:17 42.45724 -87.10401 33627 ft 439 kts 251°
2026-05-05 03:17 42.43598 -87.18160 33628 ft 439 kts 251°
2026-05-05 03:18 42.41467 -87.25914 33611 ft 439 kts 251°
2026-05-05 03:18 42.39691 -87.32352 33609 ft 439 kts 251°
2026-05-05 03:19 42.36122 -87.45247 33595 ft 442 kts 251°
2026-05-05 03:19 42.33415 -87.52723 33596 ft 447 kts 237°
2026-05-05 03:20 42.28924 -87.58630 33600 ft 455 kts 223°
2026-05-05 03:20 42.24788 -87.63025 33597 ft 455 kts 222°
2026-05-05 03:21 42.19743 -87.68307 33601 ft 456 kts 222°
2026-05-05 03:21 42.14762 -87.73529 33616 ft 458 kts 222°
2026-05-05 03:22 42.10431 -87.79644 33626 ft 449 kts 245°
2026-05-05 03:22 42.09394 -87.83580 33635 ft 447 kts 259°
2026-05-05 03:22 42.09172 -87.87747 33659 ft 446 kts 270°
2026-05-05 03:23 42.09179 -87.96121 33650 ft 446 kts 269°
2026-05-05 03:23 42.09170 -88.04467 33643 ft 446 kts 269°
2026-05-05 03:24 42.09143 -88.12819 33641 ft 444 kts 269°
2026-05-05 03:24 42.09112 -88.21118 33640 ft 442 kts 269°
2026-05-05 03:25 42.09072 -88.29415 33635 ft 442 kts 269°
2026-05-05 03:25 42.08992 -88.37704 33636 ft 442 kts 269°
2026-05-05 03:26 42.08901 -88.45995 33638 ft 442 kts 269°
2026-05-05 03:26 42.08803 -88.54259 33653 ft 439 kts 269°
2026-05-05 03:27 42.08706 -88.62484 33666 ft 439 kts 269°
2026-05-05 03:27 42.08603 -88.70709 33664 ft 438 kts 269°
2026-05-05 03:28 42.08493 -88.78926 33663 ft 438 kts 269°
2026-05-05 03:28 42.08378 -88.87151 33663 ft 438 kts 269°
2026-05-05 03:29 42.08256 -88.95357 33651 ft 437 kts 269°
2026-05-05 03:29 42.08129 -89.03540 33643 ft 437 kts 269°
2026-05-05 03:30 42.07996 -89.11741 33670 ft 437 kts 269°
2026-05-05 03:30 42.07858 -89.19932 33669 ft 437 kts 269°
2026-05-05 03:31 42.07714 -89.28075 33671 ft 436 kts 269°
2026-05-05 03:31 42.07564 -89.36243 33652 ft 435 kts 269°
2026-05-05 03:32 42.07409 -89.44395 33650 ft 435 kts 269°
2026-05-05 03:32 42.07247 -89.52554 33650 ft 435 kts 269°
2026-05-05 03:33 42.07080 -89.60712 33656 ft 435 kts 269°
2026-05-05 03:33 42.06907 -89.68872 33659 ft 435 kts 268°
2026-05-05 03:34 42.06729 -89.77026 33661 ft 435 kts 268°
2026-05-05 03:34 42.06544 -89.85183 33659 ft 435 kts 268°
2026-05-05 03:35 42.06354 -89.93331 33658 ft 435 kts 268°
2026-05-05 03:35 42.06158 -90.01499 33719 ft 435 kts 268°
2026-05-05 03:36 42.05957 -90.09631 33723 ft 434 kts 268°
2026-05-05 03:36 42.05750 -90.17761 33722 ft 434 kts 268°
2026-05-05 03:37 42.05539 -90.25825 33718 ft 434 kts 268°
2026-05-05 03:37 42.05320 -90.34002 33709 ft 434 kts 268°
2026-05-05 03:38 42.05098 -90.42063 33720 ft 432 kts 268°
2026-05-05 03:38 42.04869 -90.50142 33709 ft 431 kts 268°
2026-05-05 03:39 42.04635 -90.58215 33706 ft 431 kts 268°
2026-05-05 03:39 42.04395 -90.66287 33697 ft 431 kts 268°
2026-05-05 03:40 42.04151 -90.74355 33690 ft 431 kts 268°
2026-05-05 03:40 42.03900 -90.82413 33697 ft 429 kts 268°
2026-05-05 03:41 42.03645 -90.90430 33696 ft 428 kts 268°
2026-05-05 03:41 42.03384 -90.98452 33703 ft 428 kts 268°
2026-05-05 03:42 42.03118 -91.06489 33702 ft 428 kts 268°
2026-05-05 03:42 42.02847 -91.14508 33704 ft 428 kts 268°
2026-05-05 03:43 42.02569 -91.22513 33708 ft 427 kts 268°
2026-05-05 03:43 42.02288 -91.30509 33707 ft 427 kts 268°
2026-05-05 03:44 42.02000 -91.38507 33716 ft 427 kts 267°
2026-05-05 03:44 42.01707 -91.46507 33723 ft 427 kts 267°
2026-05-05 03:45 42.01407 -91.54505 33750 ft 427 kts 268°
2026-05-05 03:45 42.01103 -91.62429 33738 ft 422 kts 268°
2026-05-05 03:46 42.00799 -91.70319 33736 ft 422 kts 268°
2026-05-05 03:46 42.00489 -91.78208 33736 ft 422 kts 268°
2026-05-05 03:47 42.00173 -91.86090 33732 ft 422 kts 268°
2026-05-05 03:47 41.99848 -91.94001 33711 ft 421 kts 268°
2026-05-05 03:48 41.99523 -92.01812 33721 ft 421 kts 268°
2026-05-05 03:48 41.99193 -92.09679 33724 ft 421 kts 268°
2026-05-05 03:49 41.98857 -92.17544 33730 ft 421 kts 268°